BMCB-2 Weather Reports


time (UTC)temp
C
wind
direction
speed
KPH
gust
KPH
rain 1hr
cm
rain 24hr
cm
rain mn
cm
humidity
%
barometer
mb
20260503072054 13 157 6.4 6.4 0.00 0.03 0.00 80 1013.4
20260503071059 13 161 6.4 8.0 0.00 0.03 0.00 80 1013.3
20260503055055 13 149 4.8 8.0 0.00 0.03 0.00 88 1013.2
20260503054054 12 162 6.4 9.7 0.00 0.03 0.00 90 1013.4
20260503052055 12 170 9.7 12.9 0.00 0.03 0.00 91 1013.6
20260503045056 11 168 4.8 6.4 0.00 0.03 0.00 96 1013.7
20260503044055 11 160 4.8 6.4 0.00 0.03 0.00 96 1013.8
20260503043056 11 148 4.8 6.4 0.00 0.03 0.00 95 1013.8
20260503042054 11 140 4.8 4.8 0.00 0.03 0.00 95 1013.8
20260503041055 11 153 0.0 0.0 0.00 0.05 0.00 95 1013.8
20260503035056 11 176 0.0 0.0 0.00 0.05 0.00 95 1014.0
20260503034057 12 180 3.2 4.8 0.00 0.05 0.00 95 1014.0
20260503033056 11 180 4.8 6.4 0.00 0.05 0.00 95 1014.0
20260503032058 11 185 3.2 4.8 0.00 0.05 0.00 94 1014.1
20260503031055 12 181 3.2 3.2 0.00 0.05 0.00 94 1014.1
20260503030055 12 165 4.8 6.4 0.00 0.05 0.00 94 1014.0
20260503025057 12 158 4.8 4.8 0.00 0.05 0.00 94 1014.1
20260503024058 12 146 3.2 3.2 0.00 0.05 0.00 94 1014.1
20260503023055 12 145 4.8 4.8 0.00 0.05 0.00 95 1014.2
20260503022053 11 158 3.2 3.2 0.00 0.05 0.00 93 1014.3
20260503021057 12 198 1.6 3.2 0.00 0.05 0.00 92 1014.3
20260503014054 13 213 3.2 3.2 0.00 0.05 0.00 89 1014.2
20260503013057 13 213 3.2 3.2 0.00 0.05 0.00 90 1014.3
20260503012058 13 201 4.8 4.8 0.00 0.05 0.00 90 1014.5
20260503011058 13 183 4.8 4.8 0.00 0.05 0.00 89 1014.6
20260503010058 13 203 6.4 6.4 0.00 0.05 0.00 87 1014.7
20260503005058 13 218 6.4 8.0 0.00 0.05 0.00 89 1014.8
20260503003056 13 216 6.4 8.0 0.00 0.05 0.00 87 1014.9
20260503002058 14 221 6.4 8.0 0.00 0.05 0.00 87 1014.9
20260503000104 13 208 4.8 4.8 0.00 0.05 0.00 87 1015.0
20260502233104 14 223 6.4 6.4 0.00 0.05 0.00 86 1015.1
20260502232105 15 220 1.6 4.8 0.00 0.05 0.00 85 1015.1
20260502231105 15 177 4.8 4.8 0.00 0.05 0.00 86 1015.1
20260502230104 15 188 8.0 9.7 0.00 0.05 0.00 86 1015.0
20260502225100 15 186 8.0 11.3 0.00 0.05 0.00 85 1015.1
20260502224105 15 187 6.4 8.0 0.00 0.05 0.00 86 1015.1
20260502223106 15 189 8.0 14.5 0.00 0.05 0.00 85 1015.1
20260502221108 15 187 6.4 8.0 0.00 0.05 0.00 86 1015.1
20260502220105 15 186 6.4 8.0 0.00 0.05 0.00 86 1015.0
20260502215111 15 185 8.0 11.3 0.00 0.05 0.05 85 1015.1
20260502214111 15 182 8.0 11.3 0.00 0.05 0.05 85 1015.2
20260502213111 15 186 6.4 9.7 0.00 0.05 0.05 86 1015.2
20260502211110 15 169 9.7 12.9 0.00 0.05 0.05 88 1015.3
20260502210113 15 173 8.0 11.3 0.00 0.05 0.05 89 1015.4
20260502205112 15 177 6.4 8.0 0.00 0.05 0.05 91 1015.5
20260502203114 15 163 4.8 6.4 0.00 0.05 0.05 93 1015.6
20260502202117 15 157 6.4 8.0 0.00 0.05 0.05 94 1015.7
20260502201118 15 154 4.8 6.4 0.00 0.05 0.05 95 1015.7
20260502200114 15 141 4.8 8.0 0.00 0.05 0.05 95 1015.8
20260502195105 15 131 4.8 8.0 0.00 0.05 0.05 95 1015.8
20260502194103 15 122 4.8 8.0 0.00 0.05 0.05 95 1015.8
20260502193111 15 123 4.8 8.0 0.00 0.05 0.05 94 1015.7
20260502192110 15 105 6.4 8.0 0.00 0.05 0.05 93 1015.7
20260502191112 15 100 4.8 8.0 0.00 0.05 0.05 92 1015.7
20260502190107 15 101 6.4 6.4 0.00 0.05 0.05 91 1015.6
20260502185109 16 141 3.2 4.8 0.00 0.05 0.05 88 1015.5
20260502184105 17 174 3.2 4.8 0.00 0.05 0.05 82 1015.3
20260502183108 17 155 3.2 4.8 0.03 0.05 0.05 80 1015.2
20260502182103 18 171 4.8 6.4 0.03 0.05 0.05 79 1015.1
20260502181104 18 171 6.4 9.7 0.03 0.05 0.05 79 1015.0
20260502180111 18 171 8.0 16.1 0.03 0.05 0.05 77 1015.1
20260502170104 21 217 6.4 9.7 0.00 0.05 0.05 57 1014.7
20260502164101 21 241 9.7 12.9 0.00 0.05 0.05 56 1014.9
20260502163106 21 234 9.7 14.5 0.00 0.05 0.05 55 1015.1
20260502152103 23 219 16.1 25.7 0.00 0.05 0.05 48 1015.6
20260502151105 22 219 16.1 24.1 0.00 0.05 0.05 49 1015.7
20260502123057 21 263 11.3 17.7 0.00 0.05 0.05 61 1018.4
20260502122057 21 282 11.3 17.7 0.00 0.05 0.05 62 1018.5
20260502113056 21 250 12.9 20.9 0.00 0.05 0.05 60 1019.2
20260502112057 20 224 12.9 19.3 0.00 0.05 0.05 60 1019.3
20260502111057 20 212 16.1 22.5 0.00 0.05 0.05 61 1019.5
20260502110055 20 245 16.1 24.1 0.00 0.05 0.05 60 1019.6
20260502105058 21 208 17.7 24.1 0.00 0.05 0.05 59 1019.5
20260502104056 20 223 14.5 19.3 0.00 0.05 0.05 61 1019.6
20260502103056 20 239 12.9 19.3 0.00 0.05 0.05 63 1019.7
20260502102055 20 233 9.7 16.1 0.00 0.05 0.05 65 1019.8
20260502101058 20 249 11.3 16.1 0.00 0.05 0.05 66 1019.8
20260502091057 18 191 16.1 20.9 0.00 0.05 0.05 70 1020.3